Biloxi, MS

10:11 PM CDT on August 31, 2016 (GMT -0500)
Keesler Air Force Base

Weather History for KBIX - October, 2010

Change the Weather History Date:

Friday, October 15, 2010

  Actual Average Record
Temperature  
Mean Temperature 64 °F -  
Max Temperature 77 °F 79 °F 88 °F (2015)
Min Temperature 53 °F 60 °F 45 °F (1955)
Growing Degree Days 14 (Base 50)    
Moisture  
Dew Point 45 °F    
Average Humidity 48    
Maximum Humidity 63    
Minimum Humidity 22    
Precipitation  
Precipitation 0.00 in - - ()
Sea Level Pressure  
Sea Level Pressure 30.10 in    
Wind  
Wind Speed 5 mph (WNW)    
Max Wind Speed 13 mph    
Max Gust Speed -    
Visibility 10 miles    
Events      
Averages and records for this station are not official NWS values.
T = Trace of Precipitation, MM = Missing Value Source: NWS Daily Summary

Daily Weather History Graph

Daily Weather History Graph

Search for Another Location

Airport or City:

Trip Planner

Search our weather history database for the weather conditions in past years. The results will help you decide how hot, cold, wet, or windy it might be!

Date:

Astronomy

Oct. 15, 2010 Rise Set
Actual Time 6:57 AM CDT 6:24 PM CDT
Civil Twilight 6:33 AM CDT 6:48 PM CDT
Nautical Twilight 6:05 AM CDT 7:16 PM CDT
Astronomical Twilight 5:37 AM CDT 7:44 PM CDT
Moon 2:19 PM CDT (10/15) 12:21 AM CDT (10/15)
Length of Visible Light 12h 15m
Length of Day
11h 26m
First Quarter, 58% of the Moon is Illuminated
Oct 15
First Quarter
Oct 22
Full
Oct 30
Last Quarter
Nov 5
New
Nov 13
First Quarter

Hourly Weather History & Observations

Time (CDT) Temp. Dew Point Humidity Pressure Visibility Wind Dir Wind Speed Gust Speed Precip Events Conditions
12:55 AM 60.8 °F 45.1 °F 56% 30.11 in 10.0 mi NW 3.5 mph - N/A   Clear
1:55 AM 58.5 °F 44.6 °F 60% 30.12 in 10.0 mi NNW 6.9 mph - N/A   Clear
2:55 AM 58.5 °F 44.1 °F 59% 30.11 in 10.0 mi Calm Calm - N/A   Clear
3:55 AM 57.4 °F 42.4 °F 57% 30.10 in 10.0 mi North 3.5 mph - N/A   Clear
4:55 AM 56.1 °F 41.4 °F 58% 30.11 in 10.0 mi North 3.5 mph - N/A   Clear
5:55 AM 55.2 °F 41.2 °F 59% 30.11 in 10.0 mi North 5.8 mph - N/A   Clear
6:55 AM 53.8 °F 40.1 °F 60% 30.12 in 10.0 mi North 4.6 mph - N/A   Clear
7:55 AM 55.8 °F 41.4 °F 58% 30.14 in 10.0 mi North 5.8 mph - N/A   Clear
8:55 AM 61.0 °F 39.7 °F 46% 30.16 in 10.0 mi NNE 4.6 mph - N/A   Clear
9:55 AM 67.1 °F 38.7 °F 35% 30.16 in 10.0 mi North 3.5 mph - N/A   Clear
10:55 AM 72.0 °F 36.9 °F 28% 30.15 in 10.0 mi North 4.6 mph - N/A   Clear
11:55 AM 75.7 °F 34.3 °F 22% 30.14 in 10.0 mi Variable 3.5 mph - N/A   Clear
12:55 PM 76.3 °F 40.5 °F 28% 30.11 in 10.0 mi SSW 10.4 mph - N/A   Clear
1:55 PM 76.5 °F 41.0 °F 28% 30.07 in 10.0 mi SW 10.4 mph - N/A   Clear
2:55 PM 76.5 °F 46.4 °F 34% 30.05 in 10.0 mi SW 12.7 mph - N/A   Clear
3:55 PM 75.7 °F 48.7 °F 38% 30.03 in 10.0 mi SW 11.5 mph - N/A   Clear
4:55 PM 74.1 °F 50.4 °F 43% 30.03 in 10.0 mi SW 11.5 mph - N/A   Clear
5:55 PM 72.3 °F 48.9 °F 43% 30.03 in 10.0 mi WSW 9.2 mph - N/A   Clear
6:55 PM 70.5 °F 51.3 °F 50% 30.04 in 10.0 mi WSW 8.1 mph - N/A   Clear
7:55 PM 69.4 °F 51.4 °F 53% 30.06 in 10.0 mi West 5.8 mph - N/A   Clear
8:55 PM 66.7 °F 47.8 °F 51% 30.07 in 10.0 mi West 3.5 mph - N/A   Clear
9:55 PM 66.7 °F 53.4 °F 62% 30.09 in 10.0 mi Calm Calm - N/A   Clear
10:55 PM 66.4 °F 52.3 °F 61% 30.10 in 10.0 mi Variable 3.5 mph - N/A   Clear
11:55 PM 63.9 °F 51.1 °F 63% 30.09 in 10.0 mi Calm Calm - N/A   Clear